Weather Roundup
Issued by NWS Chicago, IL

Home | Current Version | Previous Version | Text Only | Print | Product List | Glossary Off
Versions: 1 2 3 4 5 6 7 8 9 10 11 12 13 14 15 16 17 18 19 20 21 22 23 24 25 26 27 28 29 30 31 32 33 34 35 36 37 38 39 40 41 42 43 44 45 46 47 48 49 50

000
NZUS59 KLOT 182304
HRRLOT

CHICAGO AREA WEATHER ROUNDUP
NATIONAL WEATHER SERVICE CHICAGO/ROMEOVILLE IL
600 PM CDT WED OCT 18 2017

NOTE: "FAIR" INDICATES FEW OR NO CLOUDS BELOW 12,000 FEET WITH NO
SIGNIFICANT WEATHER AND/OR OBSTRUCTIONS TO VISIBILITY.

* THESE STATIONS ARE NOT UNDER NWS QUALITY CONTROL. THEY ALSO MAY NOT
  REPORT WEATHER SUCH AS PRECIPITATION OR FOG.

ILZ005-006-012>014-019>023-190000-
NORTHEAST ILLINOIS

CITY           SKY/WX    TMP DP  RH WIND       PRES   REMARKS
OHARE          PTCLDY    68  41  37 S15       30.01S
MIDWAY         PTCLDY    69  40  34 S13       30.02F
AURORA         CLEAR     67  41  38 S13       30.03R
LANSING*       CLEAR     65  44  45 S13G18    30.05F
JOLIET*        CLEAR     68  42  39 S10       30.04S
WAUKEGAN       CLEAR     66  42  41 SW13      29.99R
DUPAGE AIRPORT CLEAR     66  43  43 S12       30.01S
WHEELING       CLEAR     69  41  36 S17G24    30.02S
KANKAKEE*      CLEAR     66  41  40 S9        30.08S
MORRIS*        CLEAR     67  41  38 S10       30.03S
NORTHERLY ISL    N/A     68  37  32 S13         N/A
$$

WIZ051-052-058>065-066-070>072-190000-
SOUTHEAST WISCONSIN

CITY           SKY/WX    TMP DP  RH WIND       PRES   REMARKS
MILWAUKEE      MOCLDY    69  43  38 SW16      29.98R
KENOSHA*       CLEAR     67  41  38 SW12      30.00R
RACINE*        CLEAR     67  42  40 SW12      30.00R
WAUKESHA       CLEAR     64  39  39 S14G23    29.98R
WEST BEND      CLEAR     64  37  36 S15       29.92F
$$

INZ001>003-010>013-019-020-190000-
NORTHWEST INDIANA

CITY           SKY/WX    TMP DP  RH WIND       PRES   REMARKS
GARY*          PTCLDY    68  34  28 S9        30.05S
MICHIGAN CITY* NOT AVBL
RENSSELAER*    NOT AVBL
VALPARAISO     CLEAR     66  42  41 S10       30.08S
$$

LMZ740>746-190000-
SOUTHERN LAKE MICHIGAN

STATION/POSITION TIME  SKY/WX   TEMP WIND        PRES    VSBY
                                AIR  DIR/SP/G
                 (UTC)          (F)  (DEG/KT/KT) (MB)    (MI)
HARRISON CRIB    2230            69  190/ 23/ 26   N/A
BURNHAM HARBOR   2300            69  190/ 15/ 21   N/A
CALUMET HARBOR   2230            69  190/  9/ 14 1016.3F
BURNS HARBOR     2240            67  190/ 12/ 17 1017.9S
MICHIGAN CITY    2240            67  180/ 12/ 17   N/A
$$

ABBREVIATIONS USED IN REMARKS
   TC - TEMPERATURE IN CELSIUS
  WCI - WIND CHILL INDEX
   HX - HEAT INDEX
  VSB - VISIBILITY
$$



USA.gov is the U.S. government's official web portal to all federal, state and local government web resources and services.